Location: Maccacari
(45.1333°N, 11.1333°E)
Time: 10:46:31
(UTC+00:00)

Vanguard 2 - Pass Details

Date: 26 January 2021
Orbit: 552 x 2938 km, 32.9° (Epoch: 24 February)

Event Time Altitude Azimuth Distance (km) Brightness Sun altitude
Rises 17:17:44 0° 244° (WSW) 2,721 12.3 -11.2°
Reaches altitude 10° 17:20:25 10° 223° (SW) 1,898 10.5 -11.7°
Maximum altitude 17:23:15 18° 180° (S) 1,605 9.3 -12.2°
Drops below altitude 10° 17:26:35 10° 139° (SE) 2,295 9.7 -12.8°
Enters shadow 17:28:48 - 126° (SE) 3,039 10.2 -13.1°
Sets 17:30:18 0° 121° (ESE) 3,580 - -13.4°
